Vorticity
11 9 7 9 10 8 8 8 9 6 4 4 3 5 9 10 9 5 10 13 8 8 9 9 7 13 9 9 8 7 6 9 3 6 11 3 10 6 1 6 -0 5 6 10
5 4 7 8 8 7 7 9 10 9 15 18 10 11 8 12 13 10 9 7 10 9 9 14 7 7 7 11 13 8 8 3 6 6 8 10 8 10 8 6 1 3 1 2
5 5 4 6 8 9 8 7 6 5 3 -10 2 12 12 9 9 16 11 9 11 12 6 7 10 4 7 5 12 14 12 6 5 4 0 16 4 5 8 5 5 1 2 4
4 4 6 11 7 6 17 39 51 59 58 67 52 43 37 27 16 10 14 13 8 12 14 10 4 10 5 8 6 9 13 10 5 5 9 6 11 6 9 7 8 -0 -9 13
7 7 7 6 10 28 40 38 36 58 22 46 65 45 16 15 32 28 20 14 13 8 12 14 11 4 4 3 7 7 10 19 7 4 6 2 10 11 8 4 10 3 4 2
9 7 9 7 25 37 31 29 48 -8 33 28 38 43 13 29 17 23 17 17 19 18 15 16 17 11 12 7 5 10 8 9 11 5 8 5 6 8 7 7 9 9 7 -9
8 7 9 21 35 40 31 8 38 -4 16 23 25 24 8 42 30 15 22 30 25 27 20 10 19 22 19 13 6 7 8 9 10 7 7 8 6 4 10 3 7 7 5 6
8 16 21 28 29 24 5 -3 -2 26 35 26 -1 8 -10 27 20 23 19 11 19 37 19 16 13 20 17 16 11 3 8 6 8 8 6 8 9 4 3 7 14 7 8 10
12 14 27 29 25 15 13 16 12 -8 -7 32 47 13 19 12 18 26 20 29 38 21 48 15 15 13 17 17 11 9 9 9 6 9 7 1 5 7 2 8 8 7 4 17
5 18 25 26 28 20 12 23 21 9 10 4 20 9 24 7 3 1 3 6 9 12 29 47 29 9 6 14 18 12 12 13 7 8 8 3 6 6 5 1 4 22 5 8
8 27 26 22 21 22 22 10 21 8 3 10 1 7 6 9 24 29 15 11 1 -1 15 22 24 51 10 12 11 13 20 22 12 2 5 7 5 6 3 -0 -17 -17 25 9
6 26 23 21 22 30 12 17 15 16 22 7 8 6 3 6 5 5 8 15 27 15 12 9 17 45 34 20 14 15 6 15 25 5 3 6 8 4 4 8 4 13 5 21
3 9 20 23 24 36 7 3 -3 16 6 14 19 15 10 5 7 4 6 -7 2 19 14 10 4 20 44 25 23 22 11 19 34 13 0 4 8 4 7 12 25 5 -5 14
9 20 25 16 17 23 31 4 -2 12 14 -0 12 -4 22 34 6 3 6 8 6 4 4 8 11 8 26 24 21 25 30 21 22 40 -1 3 7 3 3 3 4 10 8 -6
7 18 33 12 20 19 22 19 12 12 6 3 6 10 3 26 51 21 3 5 5 5 5 2 13 12 14 23 21 19 18 25 40 44 4 1 1 4 2 2 -3 8 -0 10
4 10 32 11 21 15 23 21 22 8 12 8 4 5 5 6 18 32 39 6 6 4 8 5 6 11 11 14 33 18 17 19 12 59 17 -6 8 1 -0 2 3 -3 10 10
6 12 30 10 18 16 21 27 22 17 9 8 7 2 7 11 12 18 38 37 16 1 5 9 5 7 8 12 11 37 19 17 11 15 34 17 6 5 3 2 -1 -1 5 7
5 10 29 13 9 19 18 30 25 24 17 16 9 8 12 4 9 9 9 31 32 23 11 7 7 5 6 7 14 17 38 15 3 38 28 25 48 9 5 0 1 1 -7 9
8 8 15 21 10 10 12 23 33 35 2 17 20 11 10 12 10 5 8 11 25 34 33 11 9 4 7 6 11 13 21 27 28 12 31 2 12 23 24 14 -1 5 1 9
10 8 15 28 8 15 10 9 14 19 13 35 38 7 13 9 11 11 7 8 12 21 34 34 17 6 2 9 5 11 10 14 18 24 14 36 22 22 24 20 28 5 11 6
9 6 10 19 13 13 14 9 6 15 16 20 18 15 13 10 10 10 10 11 13 11 18 42 38 6 2 0 9 4 9 14 15 20 20 17 20 22 24 8 18 17 9 14
9 11 7 19 18 15 11 13 12 10 12 18 14 10 11 13 13 12 9 9 12 16 11 17 44 37 6 2 5 9 8 11 14 13 23 16 12 4 10 12 23 38 29 26
9 11 9 19 21 14 8 7 7 9 14 15 20 27 32 28 13 9 11 9 9 10 14 14 18 44 24 6 -1 5 9 5 9 12 14 26 14 14 16 11 8 7 20 40
12 10 11 11 14 21 13 4 3 3 7 9 14 15 19 31 40 32 11 11 7 8 11 12 18 19 41 23 8 3 3 7 8 9 8 11 14 9 8 7 4 2 1 6
11 11 9 7 10 21 20 10 9 6 7 11 8 9 12 13 34 48 28 9 8 8 8 9 10 15 21 37 27 9 -1 3 2 10 7 7 10 14 13 9 9 8 4 9
7 11 10 8 6 17 25 12 4 6 8 7 7 9 9 11 8 24 62 31 8 8 7 8 8 8 14 18 34 26 15 4 8 4 7 11 7 0 10 25 19 13 17 23
Height
5714 5708 5700 5693 5686 5678 5670 5663 5659 5656 5645 5638 5638 5636 5637 5638 5641 5643 5646 5651 5656 5662 5666 5668 5673 5677 5682 5691 5699 5707 5712 5717 5723 5731 5736 5741 5748 5753 5755 5758 5759 5764 5768 5773
5704 5696 5688 5680 5671 5662 5652 5642 5634 5631 5625 5615 5608 5605 5610 5615 5619 5623 5626 5631 5637 5643 5651 5654 5659 5664 5669 5676 5684 5693 5700 5705 5711 5719 5728 5734 5739 5743 5748 5752 5753 5756 5761 5765
5692 5683 5673 5662 5654 5647 5634 5618 5607 5596 5593 5592 5587 5582 5582 5587 5592 5599 5605 5611 5617 5625 5632 5638 5644 5649 5655 5660 5669 5678 5687 5693 5699 5706 5716 5723 5725 5732 5739 5744 5749 5750 5754 5757
5683 5673 5663 5650 5635 5622 5609 5589 5573 5566 5554 5552 5556 5556 5556 5561 5566 5575 5585 5592 5598 5605 5612 5620 5628 5634 5640 5646 5653 5664 5673 5681 5687 5693 5703 5709 5714 5721 5730 5736 5741 5744 5747 5750
5677 5664 5651 5635 5612 5590 5576 5564 5556 5550 5544 5533 5537 5533 5533 5542 5547 5555 5565 5573 5580 5586 5593 5601 5610 5619 5625 5631 5639 5647 5658 5668 5674 5680 5690 5697 5703 5710 5718 5724 5731 5736 5742 5743
5665 5650 5635 5619 5601 5578 5565 5556 5550 5547 5539 5532 5528 5528 5528 5531 5535 5541 5549 5555 5562 5568 5574 5582 5592 5601 5609 5616 5624 5632 5642 5653 5661 5668 5675 5684 5692 5699 5707 5714 5720 5728 5733 5737
5654 5639 5621 5603 5590 5580 5563 5554 5547 5544 5538 5533 5528 5528 5529 5527 5531 5536 5539 5544 5547 5552 5559 5566 5575 5584 5593 5601 5608 5617 5626 5637 5648 5654 5661 5670 5679 5688 5696 5702 5709 5717 5724 5731
5645 5626 5610 5587 5572 5561 5557 5552 5549 5543 5538 5536 5533 5530 5529 5529 5530 5531 5533 5535 5537 5540 5545 5554 5562 5570 5578 5585 5593 5602 5612 5622 5633 5640 5647 5656 5667 5676 5684 5692 5698 5706 5714 5723
5636 5622 5600 5580 5571 5560 5557 5553 5550 5545 5540 5535 5532 5530 5530 5528 5528 5527 5527 5528 5528 5530 5534 5541 5548 5556 5564 5571 5578 5587 5597 5607 5619 5626 5634 5643 5654 5663 5671 5679 5688 5694 5703 5710
5628 5613 5594 5581 5570 5562 5555 5550 5546 5543 5539 5535 5533 5531 5529 5527 5526 5525 5524 5524 5524 5524 5525 5527 5533 5540 5549 5557 5564 5572 5582 5593 5604 5613 5622 5630 5641 5651 5659 5668 5676 5685 5691 5699
5621 5606 5591 5575 5564 5556 5553 5547 5543 5540 5538 5535 5532 5530 5527 5524 5522 5520 5520 5520 5519 5519 5519 5519 5522 5526 5535 5542 5550 5558 5566 5578 5588 5601 5609 5618 5628 5639 5647 5655 5663 5671 5677 5687
5616 5597 5582 5573 5560 5554 5548 5545 5541 5537 5535 5532 5529 5527 5523 5521 5519 5517 5516 5515 5514 5514 5514 5515 5514 5515 5520 5528 5536 5544 5552 5563 5574 5586 5596 5606 5617 5626 5636 5643 5651 5659 5666 5669
5611 5596 5584 5574 5564 5554 5549 5543 5538 5535 5532 5529 5527 5524 5519 5516 5514 5513 5512 5512 5510 5510 5510 5509 5510 5509 5512 5517 5523 5530 5538 5548 5559 5571 5583 5593 5603 5613 5623 5632 5639 5647 5653 5662
5611 5595 5581 5570 5560 5552 5546 5540 5536 5533 5530 5526 5523 5520 5515 5510 5507 5507 5507 5507 5507 5505 5506 5506 5506 5506 5507 5511 5515 5520 5526 5535 5546 5555 5569 5579 5591 5601 5610 5620 5627 5633 5639 5646
5612 5598 5583 5571 5560 5550 5543 5537 5533 5529 5527 5524 5521 5516 5510 5504 5498 5498 5499 5499 5499 5499 5501 5502 5503 5502 5503 5504 5508 5513 5518 5526 5534 5544 5556 5565 5578 5589 5598 5607 5615 5621 5628 5634
5611 5597 5582 5570 5558 5547 5540 5533 5529 5525 5523 5520 5517 5513 5508 5502 5495 5491 5489 5491 5492 5493 5495 5497 5499 5499 5499 5500 5501 5507 5513 5520 5527 5534 5545 5552 5565 5577 5587 5595 5603 5610 5618 5623
5610 5596 5581 5569 5559 5547 5537 5531 5526 5522 5519 5516 5513 5510 5505 5500 5494 5489 5485 5482 5484 5486 5488 5491 5493 5495 5495 5496 5498 5498 5504 5513 5520 5523 5532 5539 5551 5564 5574 5583 5591 5599 5606 5615
5610 5596 5582 5572 5561 5551 5541 5531 5526 5522 5516 5513 5510 5505 5501 5497 5492 5486 5482 5478 5476 5477 5480 5483 5486 5490 5491 5492 5494 5494 5496 5504 5510 5516 5522 5531 5538 5550 5561 5571 5578 5586 5594 5602
5611 5598 5585 5573 5563 5555 5544 5534 5526 5520 5516 5509 5505 5501 5498 5494 5490 5485 5481 5476 5472 5469 5471 5474 5479 5482 5486 5487 5488 5490 5490 5493 5501 5508 5514 5522 5529 5538 5547 5558 5566 5574 5580 5589
5612 5599 5587 5574 5564 5555 5548 5539 5529 5521 5513 5507 5502 5499 5496 5493 5489 5484 5479 5475 5471 5466 5464 5465 5470 5475 5479 5482 5483 5484 5486 5488 5492 5496 5501 5511 5521 5529 5538 5545 5552 5561 5567 5574
5615 5604 5593 5580 5569 5560 5550 5541 5532 5522 5519 5509 5504 5499 5495 5491 5486 5481 5476 5473 5469 5465 5461 5459 5460 5466 5471 5474 5477 5479 5480 5481 5485 5488 5492 5502 5511 5519 5527 5534 5541 5548 5554 5561
5617 5607 5595 5583 5572 5563 5554 5546 5536 5529 5519 5511 5505 5499 5494 5488 5483 5479 5474 5470 5467 5464 5460 5456 5455 5458 5463 5468 5472 5474 5475 5477 5481 5484 5487 5493 5500 5509 5515 5524 5530 5535 5540 5546
5618 5608 5597 5585 5574 5565 5558 5549 5540 5531 5521 5513 5507 5500 5492 5485 5479 5475 5471 5468 5465 5462 5459 5456 5453 5452 5455 5459 5464 5467 5469 5470 5472 5476 5481 5485 5491 5497 5504 5511 5518 5523 5526 5531
5618 5607 5597 5587 5577 5567 5559 5551 5542 5534 5526 5518 5510 5500 5491 5483 5475 5470 5467 5465 5463 5461 5458 5455 5453 5450 5449 5451 5455 5459 5461 5464 5465 5468 5471 5475 5481 5487 5491 5496 5502 5508 5514 5517
5618 5608 5598 5589 5578 5568 5559 5552 5545 5538 5530 5522 5513 5504 5495 5485 5475 5467 5463 5462 5460 5459 5456 5454 5452 5449 5448 5447 5448 5451 5454 5456 5459 5461 5463 5467 5471 5475 5479 5484 5488 5493 5498 5502
5618 5609 5599 5589 5580 5570 5562 5554 5548 5541 5533 5525 5516 5508 5499 5490 5481 5472 5464 5460 5459 5457 5454 5452 5449 5447 5445 5444 5443 5445 5448 5451 5453 5456 5458 5460 5464 5468 5472 5474 5476 5478 5481 5484